EN

Hourly Weather Bolshoe Kukushkino

Today, 21 October, Wednesday

Time Temperature Precipitation Wind Pressure Humidity
00:00 -2°C° 0 mm 2 mps 743 mmHg 95%
01:00 -2°C° 0 mm 2 mps 744 mmHg 95%
02:00 0°C° 0 mm 1 mps 744 mmHg 95%
03:00 0°C° 0 mm 1 mps 743 mmHg 94%
04:00 0°C° 0 mm 1 mps 743 mmHg 92%
05:00 0°C° 0 mm 1 mps 743 mmHg 91%
06:00 -1°C° 0.1 mm 2 mps 743 mmHg 93%
07:00 -1°C° 0.1 mm 2 mps 743 mmHg 94%
08:00 +1°C° 0.1 mm 2 mps 743 mmHg 95%
09:00 +1°C° 0.2 mm 2 mps 742 mmHg 96%
10:00 +2°C° 0.2 mm 2 mps 742 mmHg 96%
11:00 +2°C° 0.2 mm 2 mps 742 mmHg 96%
12:00 +2°C° 0.2 mm 2 mps 741 mmHg 96%
13:00 +2°C° 0.2 mm 2 mps 741 mmHg 96%
14:00 +2°C° 0.2 mm 2 mps 741 mmHg 97%
15:00 +2°C° 0.1 mm 2 mps 740 mmHg 97%
16:00 +3°C° 0.1 mm 2 mps 740 mmHg 98%
17:00 +3°C° 0.1 mm 2 mps 740 mmHg 98%
18:00 +3°C° 0.1 mm 2 mps 740 mmHg 98%
19:00 +4°C° 0.1 mm 1 mps 740 mmHg 98%
20:00 +4°C° 0.1 mm 1 mps 740 mmHg 98%
21:00 +4°C° 0 mm 1 mps 740 mmHg 98%
22:00 +4°C° 0 mm 1 mps 740 mmHg 98%
23:00 +4°C° 0 mm 1 mps 739 mmHg 98%

Tomorrow, 22 October, Thursday

Time Temperature Precipitation Wind Pressure Humidity
00:00 +4°C° 0 mm 1 mps 739 mmHg 98%
01:00 +4°C° 0 mm 1 mps 740 mmHg 98%
02:00 +4°C° 0 mm 1 mps 740 mmHg 98%
03:00 +4°C° 0 mm 2 mps 739 mmHg 98%
04:00 +4°C° 0 mm 2 mps 739 mmHg 98%
05:00 +4°C° 0 mm 2 mps 739 mmHg 97%
06:00 +4°C° 0 mm 2 mps 738 mmHg 96%
07:00 +4°C° 0 mm 3 mps 738 mmHg 95%
08:00 +4°C° 0 mm 3 mps 738 mmHg 94%
09:00 +4°C° 0.4 mm 3 mps 737 mmHg 94%
10:00 +4°C° 0.4 mm 4 mps 737 mmHg 94%
11:00 +4°C° 0.4 mm 4 mps 736 mmHg 93%
12:00 +5°C° 1 mm 4 mps 735 mmHg 94%
13:00 +5°C° 1 mm 4 mps 735 mmHg 94%
14:00 +5°C° 1 mm 4 mps 734 mmHg 94%
15:00 +5°C° 0.8 mm 4 mps 734 mmHg 95%
16:00 +5°C° 0.8 mm 4 mps 733 mmHg 95%
17:00 +6°C° 0.8 mm 4 mps 732 mmHg 96%
18:00 +6°C° 0.6 mm 4 mps 732 mmHg 95%
19:00 +7°C° 0.6 mm 4 mps 732 mmHg 95%
20:00 +8°C° 0.6 mm 4 mps 731 mmHg 95%
21:00 +8°C° 0.2 mm 4 mps 731 mmHg 93%
22:00 +9°C° 0.2 mm 5 mps 732 mmHg 92%
23:00 +10°C° 0.2 mm 5 mps 732 mmHg 90%

Day after tomorrow, 23 October, Friday

Time Temperature Precipitation Wind Pressure Humidity
00:00 +10°C° 0 mm 5 mps 732 mmHg 90%
01:00 +9°C° 0 mm 5 mps 732 mmHg 89%
02:00 +9°C° 0 mm 5 mps 733 mmHg 89%
03:00 +9°C° 0 mm 5 mps 733 mmHg 89%
04:00 +9°C° 0 mm 5 mps 733 mmHg 90%
05:00 +9°C° 0 mm 5 mps 733 mmHg 91%
06:00 +10°C° 0 mm 4 mps 733 mmHg 89%
07:00 +10°C° 0 mm 4 mps 733 mmHg 87%
08:00 +10°C° 0 mm 4 mps 733 mmHg 85%
09:00 +10°C° 0 mm 4 mps 733 mmHg 84%
10:00 +11°C° 0 mm 4 mps 733 mmHg 83%
11:00 +12°C° 0 mm 4 mps 732 mmHg 82%
12:00 +11°C° 1.6 mm 4 mps 732 mmHg 86%
13:00 +11°C° 1.6 mm 4 mps 731 mmHg 90%
14:00 +11°C° 1.6 mm 4 mps 730 mmHg 95%
15:00 +11°C° 1.5 mm 4 mps 730 mmHg 93%
16:00 +11°C° 1.5 mm 4 mps 729 mmHg 92%
17:00 +11°C° 1.5 mm 4 mps 729 mmHg 90%
18:00 +11°C° 0.1 mm 4 mps 729 mmHg 89%
19:00 +9°C° 0.1 mm 5 mps 729 mmHg 88%
20:00 +9°C° 0.1 mm 5 mps 729 mmHg 87%
21:00 +9°C° 0 mm 5 mps 730 mmHg 88%
22:00 +8°C° 0 mm 5 mps 730 mmHg 88%
23:00 +8°C° 0 mm 5 mps 730 mmHg 88%

24 October, Saturday

Time Temperature Precipitation Wind Pressure Humidity
00:00 +8°C° 0 mm 5 mps 731 mmHg 87%
01:00 +8°C° 0 mm 4 mps 731 mmHg 86%
02:00 +8°C° 0 mm 4 mps 732 mmHg 85%
03:00 +8°C° 0 mm 4 mps 732 mmHg 86%
04:00 +7°C° 0 mm 4 mps 732 mmHg 87%
05:00 +8°C° 0 mm 3 mps 733 mmHg 89%
06:00 +8°C° 0 mm 3 mps 733 mmHg 89%
07:00 +8°C° 0 mm 3 mps 733 mmHg 89%
08:00 +8°C° 0 mm 3 mps 733 mmHg 89%
09:00 +8°C° 0 mm 3 mps 734 mmHg 87%
10:00 +8°C° 0 mm 3 mps 734 mmHg 86%
11:00 +9°C° 0 mm 3 mps 734 mmHg 84%
12:00 +9°C° 0 mm 3 mps 734 mmHg 83%
13:00 +9°C° 0 mm 3 mps 734 mmHg 82%
14:00 +9°C° 0 mm 2 mps 734 mmHg 81%
15:00 +8°C° 0 mm 2 mps 734 mmHg 84%
16:00 +7°C° 0 mm 2 mps 734 mmHg 87%
17:00 +7°C° 0 mm 2 mps 734 mmHg 90%
18:00 +8°C° 0 mm 1 mps 734 mmHg 91%
19:00 +8°C° 0 mm 1 mps 734 mmHg 91%
20:00 +8°C° 0 mm 1 mps 734 mmHg 92%
21:00 +8°C° 0 mm 1 mps 734 mmHg 91%
22:00 +8°C° 0 mm 1 mps 733 mmHg 91%
23:00 +8°C° 0 mm 1 mps 733 mmHg 90%

25 October, Sunday

Time Temperature Precipitation Wind Pressure Humidity
00:00 +8°C° 0 mm 1 mps 733 mmHg 91%
01:00 +8°C° 0 mm 1 mps 733 mmHg 91%
02:00 +7°C° 0 mm 1 mps 732 mmHg 91%
03:00 +7°C° 0 mm 1 mps 732 mmHg 91%
04:00 +7°C° 0 mm 1 mps 732 mmHg 92%
05:00 +7°C° 0 mm 1 mps 732 mmHg 92%
06:00 +7°C° 0 mm 1 mps 733 mmHg 91%
07:00 +7°C° 0 mm 1 mps 733 mmHg 90%
08:00 +7°C° 0 mm 1 mps 733 mmHg 90%
09:00 +7°C° 0 mm 2 mps 734 mmHg 84%
10:00 +8°C° 0 mm 2 mps 734 mmHg 79%
11:00 +9°C° 0 mm 3 mps 735 mmHg 73%
12:00 +9°C° 0 mm 3 mps 735 mmHg 73%
13:00 +9°C° 0 mm 3 mps 736 mmHg 72%
14:00 +9°C° 0 mm 3 mps 736 mmHg 72%
15:00 +8°C° 0 mm 3 mps 736 mmHg 77%
16:00 +7°C° 0 mm 2 mps 737 mmHg 83%
17:00 +6°C° 0 mm 2 mps 738 mmHg 89%
18:00 +5°C° 0 mm 2 mps 738 mmHg 91%
19:00 +5°C° 0 mm 2 mps 739 mmHg 93%
20:00 +5°C° 0 mm 2 mps 739 mmHg 94%
21:00 +5°C° 0 mm 1 mps 740 mmHg 94%
22:00 +5°C° 0 mm 1 mps 740 mmHg 94%
23:00 +5°C° 0 mm 1 mps 741 mmHg 94%

26 October, Monday

Time Temperature Precipitation Wind Pressure Humidity
00:00 +5°C° 0 mm 1 mps 741 mmHg 95%
01:00 +5°C° 0 mm 1 mps 742 mmHg 96%
02:00 +5°C° 0 mm 1 mps 742 mmHg 97%
03:00 +6°C° 0 mm 1 mps 742 mmHg 97%
04:00 +6°C° 0 mm 1 mps 743 mmHg 97%
05:00 +6°C° 0 mm 1 mps 743 mmHg 97%
06:00 +7°C° 0 mm 1 mps 744 mmHg 96%
07:00 +7°C° 0 mm 1 mps 744 mmHg 95%
08:00 +7°C° 0 mm 1 mps 744 mmHg 95%
09:00 +7°C° 0 mm 1 mps 745 mmHg 91%
10:00 +8°C° 0 mm 1 mps 745 mmHg 86%
11:00 +9°C° 0 mm 1 mps 745 mmHg 82%
12:00 +9°C° 0 mm 1 mps 745 mmHg 81%
13:00 +9°C° 0 mm 1 mps 745 mmHg 79%
14:00 +9°C° 0 mm 1 mps 745 mmHg 78%
15:00 +8°C° 0 mm 1 mps 745 mmHg 83%
16:00 +7°C° 0 mm 1 mps 746 mmHg 87%
17:00 +7°C° 0 mm 1 mps 746 mmHg 92%
18:00 +6°C° 0 mm 1 mps 746 mmHg 93%
19:00 +6°C° 0 mm 1 mps 746 mmHg 94%
20:00 +5°C° 0 mm 1 mps 746 mmHg 95%
21:00 +5°C° 0 mm 1 mps 747 mmHg 95%
22:00 +4°C° 0 mm 2 mps 747 mmHg 96%
23:00 +4°C° 0 mm 2 mps 747 mmHg 96%

27 October, Tuesday

Time Temperature Precipitation Wind Pressure Humidity
00:00 +4°C° 0 mm 2 mps 747 mmHg 96%
01:00 +3°C° 0 mm 2 mps 747 mmHg 96%
02:00 +3°C° 0 mm 2 mps 747 mmHg 96%
03:00 +3°C° 0 mm 2 mps 747 mmHg 96%
04:00 +3°C° 0 mm 2 mps 748 mmHg 96%
05:00 +3°C° 0 mm 2 mps 748 mmHg 96%
06:00 +3°C° 0 mm 2 mps 748 mmHg 95%
07:00 +3°C° 0 mm 2 mps 748 mmHg 95%
08:00 +4°C° 0 mm 2 mps 748 mmHg 94%
09:00 +5°C° 0 mm 2 mps 748 mmHg 88%
10:00 +5°C° 0 mm 3 mps 748 mmHg 83%
11:00 +7°C° 0 mm 3 mps 749 mmHg 77%
12:00 +8°C° 0 mm 3 mps 748 mmHg 76%
13:00 +8°C° 0 mm 3 mps 748 mmHg 74%
14:00 +9°C° 0 mm 3 mps 748 mmHg 73%
15:00 +8°C° 0 mm 3 mps 748 mmHg 77%
16:00 +7°C° 0 mm 3 mps 748 mmHg 81%
17:00 +5°C° 0 mm 3 mps 748 mmHg 85%
18:00 +5°C° 0 mm 3 mps 748 mmHg 86%
19:00 +4°C° 0 mm 3 mps 748 mmHg 86%
20:00 +4°C° 0 mm 3 mps 748 mmHg 87%
21:00 +4°C° 0 mm 3 mps 748 mmHg 87%
22:00 +4°C° 0 mm 3 mps 748 mmHg 87%
23:00 +3°C° 0 mm 3 mps 748 mmHg 87%
Show more